Home   Weather   Bogota   Past weeks

Flag for Colombia Past Weather in Bogota, Colombia — Yesterday and Last 2 Weeks

Now
54 °F

Partly cloudy.


Feels Like: 53 °F
Forecast: 47 / 61 °F
Wind: 3 mph from Northwest

Location: Bogota / Eldorado

Current Time: Jan 16, 2017 at 6:11:49 am

Latest Report: Jan 16, 2017 at 5:30 am


Visibility: N/A

Pressure: 30.24 "Hg (22.10 "Hg at 2618m altitude)

Humidity: 94%

Dew Point: 52 °F

Location of BogotaLocation

Past Weather in Bogota — Graph

°F

Bogota Temperature Yesterday

Maximum temperature yesterday: 66 °F (at 12:00 pm)
Minimum temperature yesterday: 50 °F (at 3:21 am)
Average temperature yesterday: 57 °F

High & Low Weather Summary for the Past Weeks

 TemperatureHumidityPressure
High72 °F (Jan 3, 1:00 pm)100% (Jan 5, 3:00 am)30.41 "Hg (Jan 5, 3:00 am)
Low43 °F (Jan 3, 2:00 am)31% (Jan 3, 1:00 pm)30.19 "Hg (Jan 11, 4:00 pm)
Average57 °F77%30.29 "Hg
* Reported Jan 1 5:00 am — Jan 16 5:00 am, Bogota, Weather by CustomWeather, © 2017

Note: Actual official high and low records may vary slightly from our data, if they occured in-between our weather recording intervals... More about our weather records

Advertising

Bogota Weather History for the Previous 24 Hours

Scroll right to see more
 ConditionsComfort  
Time TempWeatherWind HumidityBarometerVisibility
5:00 am
Mon, Jan 16
54 °FPartly cloudy.3 mph94%30.24 "HgN/A
4:00 am54 °FPartly cloudy.5 mph94%30.24 "HgN/A
3:00 am54 °FPartly cloudy.3 mph88%30.23 "HgN/A
2:00 am54 °FScattered showers. Partly cloudy.5 mph94%30.24 "Hg5 mi
1:00 am54 °FPartly cloudy.6 mph94%30.25 "Hg5 mi
12:00 am55 °FPartly cloudy.7 mph88%30.27 "Hg5 mi
11:00 pm
Sun, Jan 15
55 °FPassing clouds.3 mph88%30.28 "HgN/A
10:00 pm55 °FPassing clouds.2 mph88%30.28 "HgN/A
9:00 pm55 °FPassing clouds.3 mph88%30.26 "HgN/A
8:00 pm57 °FPassing clouds.6 mph82%30.24 "HgN/A
7:00 pm57 °FPassing clouds.5 mph82%30.22 "HgN/A
6:00 pm57 °FPartly sunny.8 mph82%30.21 "HgN/A
5:00 pm63 °FScattered clouds.12 mph64%30.19 "HgN/A
4:00 pm63 °FScattered clouds.15 mph68%30.19 "HgN/A
3:00 pm64 °FPartly sunny.14 mph60%30.19 "HgN/A
2:00 pm66 °FScattered clouds.14 mph56%30.21 "HgN/A
1:00 pm66 °FScattered clouds.14 mph60%30.24 "HgN/A
12:00 pm66 °FScattered clouds.12 mph60%30.26 "Hg5 mi
11:00 am64 °FPartly sunny.8 mph60%30.29 "Hg5 mi
10:00 am64 °FScattered clouds.2 mph64%30.30 "Hg5 mi
9:00 am61 °FScattered clouds.2 mph72%30.31 "Hg4 mi
8:00 am59 °FPartly sunny.5 mph77%30.29 "Hg4 mi
7:25 am55 °FFog.2 mph88%30.28 "HgN/A
7:00 am52 °FFog.2 mph94%30.27 "HgN/A
6:00 am52 °FPassing clouds.5 mph94%30.26 "HgN/A
Weather by CustomWeather, © 2017

See weather overviewHow to use our weather pages